星链-4203 (STARLINK-4203 )

导读 | 豆包AI

STARLINK-4203是美国SpaceX星链互联网星座的一员,2022年7月7日发射入轨,服务全球低延迟宽带互联网覆盖。星链通过大规模低轨卫星组网,为偏远地区、海上及航空场景提供通信服务,该卫星承担星座通信节点任务,支撑星座的服务容量与覆盖能力,至今已在轨超三年半,正常开展通信业务。

基本信息
目录编号:
53021
目录名称:
STARLINK-4203
国际标识:
2022-076AM
轨道中心:
EARTH
卫星名称:
星链-4203
卫星全名:
星链-4203 (STARLINK-4203 )
卫星状态:
已陨落 最后检测时间 2024-12-18
发射日期:
2022-07-07 UTC
国别 :
美国 (US)
星等 :
--
轨道信息
数据来源 国际轨道数据
星历时间: 2024-12-18T16:48:15+0800
轨道信息已过期451天
半长轴: 6522.016km
偏心率: 0.0004529
轨道倾角: 53.195°
近地点辐角 221.700°
升交点赤经 267.713°
平近点角 234.831°
近地点: 140.927km
远地点: 146.835km
周期: 87.364分钟
每日圈数: 16.482764
详细信息
固有亮度:
5
最大亮度:
2.5
卫星平台:
Starlink v1.5
覆盖范围:
全球
运营商:
太空探索技术公司
运营商所在国:
美国
制造商(研发单位):
太空探索技术公司
制造商所在国:
美国
使用方式:
暂无
卫星简介
星链(Starlink)计划是由太空探索技术公司(SpaceX)提出的一个巨型低轨卫星互联网星座项目,计划在2019年至2024年间在太空搭建由约1.2万颗卫星组成的“星链”网络,其中1584颗将部署在地球上空550千米处的近地轨道,并从2020年开始工作。该卫星仍在工作。